Location: Boda
(47.1872°N, 9.5454°E)
Time: 09:41:35
(UTC+00:00)

Cosmos 1656 - Pass Details

Date: 14 May 2021
Orbit: 797 x 850 km, 71.1° (Epoch: 16 June)

Event Time Altitude Azimuth Distance (km) Brightness Sun altitude
Exits shadow 00:41:01 42° 167° (SSE) 1,147 4.0 -21.6°
Maximum altitude 00:42:38 59° 111° (ESE) 934 3.9 -21.5°
Drops below altitude 10° 00:48:03 10° 33° (NNE) 2,419 7.2 -21.1°
Sets 00:50:32 0° 30° (NNE) 3,364 8.4 -21.0°
